When you browse on this site, cookies collect data to enhance your experience and personalize the content and advertising you see.
Visit our Privacy Policy to learn more. By continuing to use the site, you agree to this use of cookies and data.
  • In Österreich
  • Länderverzeichnis
  • Für 7 Tage
  • Wassertemperatur
  • Wetterkarte
  • News
  • Widgets
  • user-avatar
    Anmelden

    Stündliche Wetter La Vega

    Heute, 18 Januar, Samstag

    Zeit Temperatur Niederschläge Wind Luftdruck Luftfeuchtigkeit
    00:00 +14°C° 0.1 mm 2 m/S 570 mmHg 79%
    01:00 +14°C° 0.1 mm 2 m/S 569 mmHg 80%
    02:00 +14°C° 0 mm 2 m/S 569 mmHg 80%
    03:00 +13°C° 0 mm 2 m/S 569 mmHg 80%
    04:00 +13°C° 0 mm 2 m/S 568 mmHg 81%
    05:00 +13°C° 0 mm 2 m/S 569 mmHg 81%
    06:00 +13°C° 0 mm 2 m/S 569 mmHg 81%
    07:00 +14°C° 0 mm 2 m/S 569 mmHg 81%
    08:00 +15°C° 0 mm 2 m/S 571 mmHg 75%
    09:00 +17°C° 0 mm 2 m/S 572 mmHg 69%
    10:00 +19°C° 0 mm 2 m/S 573 mmHg 64%
    11:00 +20°C° 0.1 mm 2 m/S 573 mmHg 61%
    12:00 +21°C° 0.1 mm 2 m/S 573 mmHg 59%
    13:00 +21°C° 0.1 mm 2 m/S 573 mmHg 56%
    14:00 +21°C° 0.1 mm 2 m/S 572 mmHg 56%
    15:00 +21°C° 0.1 mm 2 m/S 571 mmHg 57%
    16:00 +21°C° 0.1 mm 2 m/S 571 mmHg 57%
    17:00 +19°C° 0.1 mm 2 m/S 570 mmHg 66%
    18:00 +17°C° 0.1 mm 2 m/S 569 mmHg 75%
    19:00 +14°C° 0.1 mm 2 m/S 569 mmHg 84%
    20:00 +14°C° 0.1 mm 2 m/S 569 mmHg 84%
    21:00 +14°C° 0.1 mm 2 m/S 570 mmHg 84%
    22:00 +14°C° 0.1 mm 2 m/S 570 mmHg 84%
    23:00 +13°C° 0 mm 2 m/S 570 mmHg 85%

    Morgen, 19 Januar, Sonntag

    Zeit Temperatur Niederschläge Wind Luftdruck Luftfeuchtigkeit
    00:00 +13°C° 0 mm 1 m/S 569 mmHg 85%
    01:00 +13°C° 0 mm 1 m/S 569 mmHg 85%
    02:00 +13°C° 0 mm 1 m/S 569 mmHg 85%
    03:00 +13°C° 0 mm 1 m/S 568 mmHg 85%
    04:00 +13°C° 0 mm 1 m/S 568 mmHg 84%
    05:00 +13°C° 0 mm 1 m/S 568 mmHg 84%
    06:00 +14°C° 0 mm 1 m/S 569 mmHg 84%
    07:00 +14°C° 0 mm 1 m/S 569 mmHg 84%
    08:00 +15°C° 0 mm 1 m/S 570 mmHg 79%
    09:00 +18°C° 0 mm 1 m/S 571 mmHg 73%
    10:00 +20°C° 0 mm 1 m/S 573 mmHg 68%
    11:00 +20°C° 0.1 mm 1 m/S 572 mmHg 66%
    12:00 +21°C° 0.1 mm 1 m/S 572 mmHg 64%
    13:00 +22°C° 0.1 mm 1 m/S 572 mmHg 61%
    14:00 +22°C° 0.2 mm 1 m/S 571 mmHg 63%
    15:00 +22°C° 0.2 mm 1 m/S 571 mmHg 64%
    16:00 +21°C° 0.2 mm 1 m/S 570 mmHg 65%
    17:00 +19°C° 0.8 mm 1 m/S 570 mmHg 75%
    18:00 +16°C° 0.8 mm 1 m/S 569 mmHg 85%
    19:00 +14°C° 0.8 mm 1 m/S 569 mmHg 94%
    20:00 +14°C° 0.7 mm 1 m/S 569 mmHg 94%
    21:00 +14°C° 0.7 mm 1 m/S 570 mmHg 94%
    22:00 +13°C° 0.7 mm 1 m/S 570 mmHg 93%
    23:00 +13°C° 0.4 mm 1 m/S 570 mmHg 93%

    übermorgen, 20 Januar, Montag

    Zeit Temperatur Niederschläge Wind Luftdruck Luftfeuchtigkeit
    00:00 +13°C° 0.4 mm 1 m/S 569 mmHg 93%
    01:00 +13°C° 0.4 mm 1 m/S 569 mmHg 93%
    02:00 +13°C° 0.3 mm 1 m/S 569 mmHg 93%
    03:00 +13°C° 0.3 mm 1 m/S 569 mmHg 93%
    04:00 +12°C° 0.3 mm 0 m/S 568 mmHg 94%
    05:00 +12°C° 0 mm 0 m/S 569 mmHg 93%
    06:00 +12°C° 0 mm 0 m/S 569 mmHg 92%
    07:00 +13°C° 0 mm 1 m/S 569 mmHg 92%
    08:00 +15°C° 0.2 mm 1 m/S 571 mmHg 88%
    09:00 +16°C° 0.2 mm 1 m/S 572 mmHg 84%
    10:00 +19°C° 0.2 mm 1 m/S 573 mmHg 80%
    11:00 +19°C° 1.1 mm 1 m/S 572 mmHg 81%
    12:00 +20°C° 1.1 mm 1 m/S 572 mmHg 82%
    13:00 +20°C° 1.1 mm 1 m/S 572 mmHg 83%
    14:00 +19°C° 2 mm 1 m/S 571 mmHg 86%
    15:00 +19°C° 2 mm 1 m/S 570 mmHg 88%
    16:00 +16°C° 2 mm 0 m/S 569 mmHg 91%
    17:00 +15°C° 2.6 mm 0 m/S 569 mmHg 92%
    18:00 +14°C° 2.6 mm 0 m/S 569 mmHg 94%
    19:00 +14°C° 2.6 mm 1 m/S 569 mmHg 95%
    20:00 +13°C° 1.8 mm 0 m/S 569 mmHg 96%
    21:00 +13°C° 1.8 mm 0 m/S 570 mmHg 96%
    22:00 +12°C° 1.8 mm 0 m/S 570 mmHg 96%
    23:00 +12°C° 2.7 mm 0 m/S 570 mmHg 97%

    21 Januar, Dienstag

    Zeit Temperatur Niederschläge Wind Luftdruck Luftfeuchtigkeit
    00:00 +12°C° 2.7 mm 0 m/S 569 mmHg 97%
    01:00 +12°C° 2.7 mm 0 m/S 569 mmHg 98%
    02:00 +12°C° 2.9 mm 0 m/S 569 mmHg 98%
    03:00 +12°C° 2.9 mm 0 m/S 569 mmHg 98%
    04:00 +12°C° 2.9 mm 0 m/S 568 mmHg 98%
    05:00 +12°C° 1.7 mm 0 m/S 569 mmHg 98%
    06:00 +12°C° 1.7 mm 0 m/S 569 mmHg 98%
    07:00 +12°C° 1.7 mm 0 m/S 569 mmHg 98%
    08:00 +12°C° 0.8 mm 0 m/S 570 mmHg 97%
    09:00 +13°C° 0.8 mm 0 m/S 571 mmHg 96%
    10:00 +13°C° 0.8 mm 0 m/S 571 mmHg 95%
    11:00 +13°C° 1.1 mm 0 m/S 571 mmHg 96%
    12:00 +13°C° 1.1 mm 0 m/S 570 mmHg 96%
    13:00 +13°C° 1.1 mm 0 m/S 570 mmHg 97%
    14:00 +13°C° 0.6 mm 0 m/S 569 mmHg 96%
    15:00 +13°C° 0.6 mm 0 m/S 569 mmHg 95%
    16:00 +13°C° 0.6 mm 0 m/S 568 mmHg 95%
    17:00 +13°C° 0 mm 0 m/S 568 mmHg 96%
    18:00 +13°C° 0 mm 0 m/S 568 mmHg 97%
    19:00 +12°C° 0 mm 0 m/S 568 mmHg 98%
    20:00 +12°C° 0.1 mm 0 m/S 569 mmHg 98%
    21:00 +12°C° 0.1 mm 0 m/S 569 mmHg 98%
    22:00 +12°C° 0.1 mm 0 m/S 570 mmHg 98%
    23:00 +12°C° 0.1 mm 0 m/S 569 mmHg 98%

    22 Januar, Mittwoch

    Zeit Temperatur Niederschläge Wind Luftdruck Luftfeuchtigkeit
    00:00 +13°C° 0.1 mm 1 m/S 569 mmHg 97%
    01:00 +12°C° 0.1 mm 1 m/S 569 mmHg 97%
    02:00 +11°C° 0 mm 0 m/S 569 mmHg 97%
    03:00 +11°C° 0 mm 0 m/S 568 mmHg 96%
    04:00 +11°C° 0 mm 0 m/S 568 mmHg 96%
    05:00 +11°C° 0 mm 0 m/S 568 mmHg 96%
    06:00 +11°C° 0 mm 0 m/S 569 mmHg 95%
    07:00 +11°C° 0 mm 0 m/S 569 mmHg 95%
    08:00 +14°C° 0.1 mm 1 m/S 570 mmHg 90%
    09:00 +16°C° 0.1 mm 1 m/S 571 mmHg 84%
    10:00 +18°C° 0.1 mm 1 m/S 572 mmHg 79%
    11:00 +19°C° 0.7 mm 1 m/S 572 mmHg 78%
    12:00 +19°C° 0.7 mm 1 m/S 571 mmHg 78%
    13:00 +19°C° 0.7 mm 1 m/S 571 mmHg 78%
    14:00 +19°C° 0.9 mm 1 m/S 570 mmHg 80%
    15:00 +19°C° 0.9 mm 1 m/S 570 mmHg 82%
    16:00 +18°C° 0.9 mm 1 m/S 569 mmHg 84%
    17:00 +16°C° 0.8 mm 1 m/S 569 mmHg 88%
    18:00 +15°C° 0.8 mm 1 m/S 568 mmHg 92%
    19:00 +14°C° 0.8 mm 1 m/S 568 mmHg 96%
    20:00 +13°C° 0.1 mm 1 m/S 569 mmHg 96%
    21:00 +13°C° 0.1 mm 1 m/S 569 mmHg 95%
    22:00 +13°C° 0.1 mm 1 m/S 569 mmHg 95%
    23:00 +13°C° 0.1 mm 1 m/S 569 mmHg 95%

    23 Januar, Donnerstag

    Zeit Temperatur Niederschläge Wind Luftdruck Luftfeuchtigkeit
    00:00 +13°C° 0.1 mm 1 m/S 569 mmHg 95%
    01:00 +13°C° 0.1 mm 1 m/S 569 mmHg 95%
    02:00 +12°C° 0.1 mm 1 m/S 568 mmHg 95%
    03:00 +12°C° 0.1 mm 1 m/S 568 mmHg 96%
    04:00 +12°C° 0.1 mm 1 m/S 568 mmHg 96%
    05:00 +12°C° 0.1 mm 1 m/S 568 mmHg 95%
    06:00 +12°C° 0.1 mm 1 m/S 569 mmHg 95%
    07:00 +12°C° 0.1 mm 1 m/S 569 mmHg 94%
    08:00 +14°C° 0.1 mm 1 m/S 570 mmHg 87%
    09:00 +16°C° 0.1 mm 1 m/S 571 mmHg 80%
    10:00 +19°C° 0.1 mm 1 m/S 572 mmHg 72%
    11:00 +20°C° 0.6 mm 1 m/S 572 mmHg 73%
    12:00 +19°C° 0.6 mm 2 m/S 572 mmHg 74%
    13:00 +19°C° 0.6 mm 2 m/S 571 mmHg 74%
    14:00 +19°C° 0.8 mm 2 m/S 570 mmHg 77%
    15:00 +19°C° 0.8 mm 1 m/S 570 mmHg 79%
    16:00 +19°C° 0.8 mm 1 m/S 569 mmHg 82%
    17:00 +16°C° 0.6 mm 1 m/S 569 mmHg 86%
    18:00 +15°C° 0.6 mm 1 m/S 568 mmHg 91%
    19:00 +13°C° 0.6 mm 0 m/S 568 mmHg 96%
    20:00 +13°C° 0.1 mm 0 m/S 569 mmHg 96%
    21:00 +12°C° 0.1 mm 0 m/S 569 mmHg 96%
    22:00 +12°C° 0.1 mm 0 m/S 569 mmHg 96%
    23:00 +12°C° 0 mm 0 m/S 569 mmHg 96%
    Mehr zeigen